P/2021 L2 ( Leonard )

Japanese version
Home page
Updated on September 18, 2021

---------------------------------------------------------------------

* Profile

Discovery Date June 8, 2021
Magnitude 20.3 mag
Discoverer G. J. Leonard (Munt Lemmon Survey)

* Pictures

* Orbital Elements

Epoch 2021 July 5.0 TT = JDT 2459400.5
T 2021 July 24.54426 TT                                 Rudenko
q   1.9385820            (2000.0)            P               Q
n   0.12075763     Peri.   51.53604     +0.69337989     +0.62482952
a   4.0537753      Node   266.67822     -0.72055059     +0.59737205
e   0.5217835      Incl.   21.07001     -0.00558441     +0.50272726
P   8.16
From 96 observations 2021 May 11-Aug. 11, mean residual 0".6.

* Magnitudes Graph

        m1 = 13.0 + 5 log d + 20.0 log r(t - 50)

---------------------------------------------------------------------

The orbital elements are published on M.P.E.C. 2021-R75.
The magnitudes graphs are made with Comet for Windows.

---------------------------------------------------------------------

Copyright(C) Seiichi Yoshida (comet@aerith.net). All rights reserved.